Regional Weather Roundup
Issued by NWS State College, PA

Home | Current Version | Previous Version | Text Only | Print | Product List | Glossary Off
Versions: 1 2 3 4 5 6 7 8 9 10 11 12 13 14 15 16 17 18 19 20 21 22 23 24 25 26 27 28 29 30 31 32 33 34 35 36 37 38 39 40 41 42 43 44 45 46 47 48 49 50

000
ASUS41 KCTP 231603
RWRCTP

REGIONAL WEATHER ROUNDUP
NATIONAL WEATHER SERVICE STATE COLLEGE PA
1200 PM EDT SUN JUL 23 2017

Note: "fair" indicates few or no clouds below 12,000 feet with no
significant weather and/or obstructions to visibility.

* = STATION THAT DOES NOT REPORT PRECIPITATION /E.G. RAIN...SNOW...ETC/
    THUNDER OR FOG.

PAZ002>004-007>009-013>016-020>023-029>032-231700-
WESTERN PENNSYLVANIA

CITY           SKY/WX    TMP DP  RH WIND       PRES   REMARKS
ERIE           PTSUNNY   79  70  74 W12       29.78R
MEADVILLE      MOSUNNY   79  71  76 W10       29.82S
FRANKLIN*      PTSUNNY   79  68  69 SW7       29.83S
NEW CASTLE     PTSUNNY   79  72  79 W8        29.82S
BEAVER COUNTY  CLOUDY    77  72  83 SW6       29.84R
BUTLER*        CLOUDY    79  70  73 SW10      29.83S
PITTSBURGH INT CLOUDY    80  72  76 SW9       29.83S
PITTSBURGH     CLOUDY    79  69  71 SW7       29.83F
INDIANA*       CLOUDY    79  73  83 SW9       29.87R
LATROBE        CLOUDY    75  73  94 SW16      29.86S
WASHINGTON CO* CLOUDY    72  70  94 W8G16     29.86R
$$

PAZ004>006-010>012-017>019-024>028-033>037-041-042-045-046-049>053-231700-
CENTRAL PENNSYLVANIA

CITY           SKY/WX    TMP DP  RH WIND       PRES   REMARKS
BRADFORD       MOSUNNY   77  70  79 W9        29.84R
DUBOIS         PTSUNNY   77  67  71 W12       29.83S
CLEARFIELD     PTSUNNY   78  71  79 SW9       29.84R
JOHNSTOWN      PTSUNNY   75  69  81 W8        29.89S
ALTOONA        MOSUNNY   82  70  66 NW9       29.85R
STATE COLLEGE  NOT AVBL
WILLIAMSPORT   CLOUDY    77  71  82 E5        29.80R
SELINSGROVE    CLOUDY    77  71  82 CALM      29.82R
FT INDIANTOWN  CLOUDY    77  72  84 CALM      29.81S
CAPITAL CITY   CLOUDY    85  70  60 CALM      29.79S
HARRISBURG     CLOUDY    82  73  74 NE6       29.79R
YORK           CLOUDY    83  73  72 CALM      29.80R
$$

PAZ038>040-043-044-047-048-054-055-060>062-067>071-231700-
EASTERN PENNSYLVANIA

CITY           SKY/WX    TMP DP  RH WIND       PRES   REMARKS
SCRANTON       CLOUDY    76  63  64 VRB3      29.84R
MOUNT POCONO   PTSUNNY   73  64  73 SE8       29.88R
ALLENTOWN      CLOUDY    80  67  64 SE5       29.81R
QUAKERTOWN*    CLOUDY    77  68  73 E6        29.84R
READING        PTSUNNY   79  73  82 NE6       29.80S
LANCASTER      CLOUDY    83  73  72 N7        29.80S
COATESVILLE    CLOUDY    79  72  78 CALM      29.84R
POTTSTOWN      CLOUDY    75  72  90 NE5       29.83R
BLUE BELL      CLOUDY    77  72  83 CALM      29.82S
DOYLESTOWN     CLOUDY    76  70  82 CALM      29.81S
WILLOW GROVE   NOT AVBL
NORTH PHILA    CLOUDY    77  69  76 E9        29.82S
PHILADELPHIA   CLOUDY    82  71  69 E9        29.79S
$$




USA.gov is the U.S. government's official web portal to all federal, state and local government web resources and services.